Theta_e
345 345 346 348 350 350 350 350 350 350 350 351 350 348 347 345 347 345 343 342 345 347 348 349 346 346 344 348 356 358 355 351 350
344 345 347 348 349 350 351 351 351 350 352 352 347 342 346 346 348 345 341 338 344 344 342 343 347 349 349 351 353 353 351 352 348
345 346 347 348 349 350 350 351 351 350 352 351 343 338 339 348 348 343 341 342 341 345 346 349 352 349 353 353 352 350 346 346 340
344 345 348 348 350 350 349 349 350 351 351 349 343 339 337 339 340 339 339 339 341 344 345 348 349 352 352 351 345 339 337 339 340
344 346 347 348 350 349 350 349 349 350 351 350 349 337 336 338 339 340 344 352 348 344 347 349 352 352 350 339 336 339 336 339 340
344 344 346 348 349 348 349 349 349 349 350 352 349 347 338 338 341 350 354 353 347 346 349 349 351 347 334 336 338 333 331 336 337
345 346 347 347 347 348 349 349 350 349 350 352 350 349 345 345 352 355 355 347 346 349 349 350 342 336 336 335 337 335 337 336 335
345 347 347 347 347 348 350 351 351 351 351 351 350 352 353 354 355 353 346 346 348 350 350 346 338 336 337 334 328 334 335 334 334
346 344 346 345 346 348 351 353 353 353 352 353 352 354 352 354 352 353 347 349 351 350 349 334 337 337 327 331 333 327 330 333 332
345 342 344 344 345 348 350 354 355 355 354 355 354 355 356 357 356 356 352 351 350 350 336 331 332 337 331 323 316 315 321 328 327
344 342 341 343 344 348 350 354 356 356 357 356 349 355 358 358 355 350 350 351 350 345 339 337 337 328 320 315 313 313 316 322 324
344 344 342 342 343 348 351 353 357 357 358 362 361 351 357 356 350 348 350 352 349 338 338 338 332 324 318 313 310 310 313 322 323
343 344 343 343 343 346 352 353 357 359 361 362 363 362 360 352 350 350 352 351 349 337 338 335 334 328 315 310 309 309 318 322 323
344 343 344 343 344 347 351 353 356 360 362 362 358 363 355 352 353 353 354 352 341 332 332 333 331 318 315 312 309 310 318 321 323
344 342 344 344 346 347 351 355 357 360 360 359 361 359 352 352 353 354 354 352 334 331 333 330 325 318 318 315 311 311 315 321 323
345 342 343 344 346 349 355 354 356 349 347 357 360 353 350 351 353 354 355 350 329 331 332 334 331 326 326 322 314 312 313 317 320
348 345 344 345 347 351 358 355 358 342 344 345 352 351 350 351 353 353 353 347 329 336 335 335 333 330 327 326 322 315 312 312 314
345 347 346 347 349 352 358 358 353 358 342 341 346 351 351 353 352 354 354 342 335 336 334 334 332 331 331 328 325 323 315 313 315
345 346 349 348 351 352 358 362 361 360 349 342 345 355 354 352 353 351 351 339 335 334 334 333 329 329 329 331 329 325 320 316 318
339 344 348 350 351 353 358 360 360 361 356 347 346 349 356 355 352 351 347 337 335 331 332 330 325 324 326 329 327 327 322 312 315
Wind_Speed
24 25 25 23 23 22 22 21 21 18 17 17 16 14 14 12 12 13 14 12 10 8 9 7 7 7 5 8 6 7 6 6 5
26 26 27 25 24 23 23 23 22 21 18 16 13 13 16 14 14 14 12 12 10 6 5 6 2 5 7 4 4 5 4 4 4
28 27 25 27 25 24 23 23 23 22 19 17 16 15 16 13 14 14 12 11 9 5 4 5 4 4 2 3 4 2 5 4 5
24 25 27 27 26 24 24 23 23 23 22 20 17 19 17 16 18 15 14 13 8 5 2 1 2 2 4 4 3 2 2 2 3
17 18 22 26 26 26 25 25 25 24 23 23 20 23 22 20 17 13 9 9 8 5 3 2 2 3 4 3 1 2 3 5 5
19 19 22 25 26 27 26 25 25 25 24 26 25 28 23 19 16 13 12 11 10 5 3 4 4 6 5 5 4 3 5 7 7
19 20 23 25 26 27 26 25 25 25 24 26 24 20 23 22 16 16 15 13 9 7 9 8 7 7 7 6 7 7 7 7 8
19 21 24 25 26 28 27 26 26 25 24 24 23 24 25 21 18 17 16 15 10 11 10 9 10 9 8 9 7 6 8 8 8
21 22 23 25 26 27 28 27 28 27 25 24 24 23 18 22 22 19 20 17 15 12 11 12 11 9 10 10 8 10 13 10 8
21 21 25 26 27 28 29 28 29 28 27 27 28 27 23 20 21 24 19 17 16 14 12 14 12 11 10 11 9 12 13 14 8
22 23 26 27 28 27 28 27 27 26 25 26 27 27 24 25 28 24 22 20 16 14 15 14 14 12 11 10 12 14 15 15 11
27 26 28 29 28 28 29 30 30 30 29 29 27 27 28 27 26 25 22 20 17 17 17 16 14 12 12 11 14 16 16 16 10
28 27 29 28 28 28 28 29 29 32 32 32 29 29 30 27 26 24 22 20 19 19 17 15 14 14 13 12 14 17 19 18 8
27 27 29 29 29 31 33 34 34 35 34 33 31 28 29 28 27 24 22 21 21 21 19 18 18 16 14 13 14 18 20 19 12
20 25 29 30 30 31 36 38 39 38 36 32 31 32 28 29 27 25 23 21 22 22 23 21 19 17 16 15 16 17 20 21 17
10 27 27 29 30 32 38 42 43 38 34 34 33 33 30 29 27 26 24 24 24 24 24 19 18 17 15 15 18 19 20 19 17
8 18 24 27 29 34 36 40 43 37 37 36 35 32 32 30 29 28 25 24 25 22 22 20 19 19 18 17 18 20 20 20 19
8 4 21 28 30 34 39 42 43 36 40 39 36 30 33 33 30 29 26 24 24 22 21 21 21 20 19 20 21 21 21 20 18
10 8 8 25 30 34 36 36 35 38 40 41 36 31 29 30 28 28 26 26 28 27 23 27 25 22 20 20 19 22 22 22 19
13 10 12 21 29 31 36 39 39 41 42 43 40 35 32 30 29 29 28 29 27 31 33 31 31 30 29 26 28 27 23 23 24
Wind_Direction
181 185 177 179 181 179 180 183 182 183 184 190 193 193 177 189 171 169 169 161 191 209 206 220 238 252 282 293 297 288 294 315 341
178 178 172 184 176 180 181 181 182 181 187 188 193 190 178 171 159 173 182 188 190 181 171 168 219 273 271 294 305 321 5 343 313
175 176 169 183 176 180 182 181 181 182 184 181 187 175 178 174 175 170 176 186 176 195 203 229 257 282 274 293 300 294 79 39 329
174 177 172 189 176 178 180 179 180 183 183 179 188 179 158 166 159 160 165 173 220 236 234 205 228 243 273 282 295 311 229 286 14
162 169 178 179 177 178 180 182 184 184 185 185 186 176 165 168 169 186 217 217 217 219 240 252 242 258 261 263 198 160 118 126 103
156 167 174 176 178 179 182 183 185 184 190 192 189 201 200 205 209 213 206 211 214 240 219 239 257 247 226 176 156 122 123 115 101
163 177 174 178 180 180 182 184 184 185 188 198 188 204 209 215 206 202 206 212 215 221 234 223 217 185 170 147 126 119 118 116 104
172 183 178 181 184 180 181 182 182 184 186 199 189 193 198 200 200 213 212 214 208 220 207 203 183 174 151 139 109 123 129 127 119
176 184 184 183 185 180 184 185 183 185 187 189 182 198 196 193 199 208 204 205 202 195 196 183 171 167 156 126 182 194 149 139 131
181 186 185 183 185 186 186 187 185 185 186 186 188 183 189 193 191 203 204 194 192 189 185 180 169 164 163 182 183 168 162 131 133
186 187 185 185 188 186 188 187 187 183 187 193 188 183 190 195 203 204 202 195 191 181 175 171 169 169 177 180 171 163 155 142 122
185 193 192 190 190 190 187 186 186 183 186 188 191 189 197 205 205 203 202 194 190 180 173 172 170 173 179 174 167 155 140 121 129
192 194 198 194 191 189 189 188 188 185 185 193 193 191 204 204 203 204 198 196 189 179 175 169 164 175 178 169 166 157 145 132 155
203 191 198 197 193 191 190 186 186 188 189 196 197 196 208 201 201 198 197 193 187 182 171 176 181 181 175 172 172 165 154 150 153
200 198 199 198 191 190 185 187 187 188 194 197 194 205 203 200 197 194 197 195 187 183 178 190 187 183 175 177 177 177 169 160 163
220 202 203 197 193 190 184 192 194 195 196 197 200 208 205 201 196 194 196 193 191 183 189 181 180 181 176 183 186 185 184 185 181
299 211 202 198 194 188 186 194 197 199 198 204 209 207 205 200 193 196 194 191 193 184 184 188 188 187 187 188 189 195 195 192 184
303 267 216 201 197 192 193 198 199 192 202 206 211 199 200 198 190 196 196 190 192 189 193 196 193 195 192 195 197 201 201 192 190
306 264 221 207 204 200 195 198 197 190 200 205 205 189 187 188 188 187 192 188 195 188 202 197 197 199 196 207 208 208 211 192 188
313 262 217 219 208 204 199 200 197 195 202 207 208 200 189 190 188 186 190 191 196 195 201 208 203 201 196 201 209 217 217 206 199